| time (UTC) | temp F | wind direction | speed knots | gust knots | rain 1hr in | rain 24hr in | rain mn in | humidity % | barometer mb |
| 20260510184623 | 82 | 44 | 0.9 | 0.9 | 0.00 | 0.00 | 0.00 | 40 | 1015.2 |
| 20260510184119 | 81 | 182 | 0.9 | 0.9 | 0.00 | 0.00 | 0.00 | 38 | 1015.3 |
| 20260510183614 | 81 | 50 | 0.9 | 0.9 | 0.00 | 0.00 | 0.00 | 36 | 1015.3 |
| 20260510183109 | 84 | 119 | 0.0 | 0.0 | 0.00 | 0.00 | 0.00 | 37 | 1015.5 |
| 20260510182607 | 84 | 59 | 0.0 | 0.9 | 0.00 | 0.00 | 0.00 | 37 | 1015.3 |
| 20260510182102 | 84 | 135 | 0.0 | 0.0 | 0.00 | 0.00 | 0.00 | 34 | 1015.6 |
| 20260510181600 | 86 | 92 | 0.0 | 0.0 | 0.00 | 0.00 | 0.00 | 36 | 1015.6 |
| 20260510181056 | 85 | 58 | 0.0 | 0.9 | 0.00 | 0.00 | 0.00 | 38 | 1015.6 |
| 20260510180552 | 86 | 10 | 0.9 | 0.9 | 0.00 | 0.00 | 0.00 | 35 | 1015.5 |
| 20260510180050 | 86 | 329 | 0.0 | 0.0 | 0.00 | 0.00 | 0.00 | 36 | 1015.5 |
| 20260510175550 | 85 | 41 | 0.0 | 0.0 | 0.00 | 0.00 | 0.00 | 37 | 1015.8 |
| 20260510175046 | 82 | 187 | 0.9 | 0.9 | 0.00 | 0.00 | 0.00 | 37 | 1015.6 |
| 20260510174545 | 83 | 2 | 0.9 | 0.9 | 0.00 | 0.00 | 0.00 | 35 | 1015.9 |
| 20260510174042 | 84 | 233 | 1.7 | 2.6 | 0.00 | 0.00 | 0.00 | 33 | 1015.8 |
| 20260510173537 | 87 | 209 | 0.0 | 0.9 | 0.00 | 0.00 | 0.00 | 36 | 1015.9 |
| 20260510173034 | 86 | 30 | 0.0 | 0.9 | 0.00 | 0.00 | 0.00 | 38 | 1015.9 |
| 20260510172530 | 86 | 279 | 1.7 | 1.7 | 0.00 | 0.00 | 0.00 | 34 | 1015.9 |
| 20260510172026 | 86 | 27 | 0.9 | 0.9 | 0.00 | 0.00 | 0.00 | 35 | 1016.0 |
| 20260510171523 | 86 | 273 | 0.0 | 0.0 | 0.00 | 0.00 | 0.00 | 36 | 1016.1 |
| 20260510171020 | 85 | 187 | 0.9 | 1.7 | 0.00 | 0.00 | 0.00 | 38 | 1016.0 |
| 20260510170517 | 84 | 320 | 0.0 | 0.0 | 0.00 | 0.00 | 0.00 | 41 | 1015.9 |
| 20260510170014 | 84 | 214 | 1.7 | 1.7 | 0.00 | 0.00 | 0.00 | 37 | 1015.8 |
| 20260510165509 | 84 | 157 | 0.0 | 0.0 | 0.00 | 0.00 | 0.00 | 38 | 1015.8 |
| 20260510165006 | 83 | 159 | 0.9 | 0.9 | 0.00 | 0.00 | 0.00 | 40 | 1016.0 |
| 20260510164502 | 84 | 161 | 0.9 | 1.7 | 0.00 | 0.00 | 0.00 | 36 | 1016.2 |
| 20260510163958 | 83 | 132 | 0.0 | 0.9 | 0.00 | 0.00 | 0.00 | 41 | 1016.1 |
| 20260510163454 | 81 | 115 | 0.0 | 0.0 | 0.00 | 0.00 | 0.00 | 40 | 1016.1 |
| 20260510162949 | 81 | 145 | 0.9 | 1.7 | 0.00 | 0.00 | 0.00 | 38 | 1016.2 |
| 20260510162446 | 80 | 61 | 0.9 | 0.9 | 0.00 | 0.00 | 0.00 | 41 | 1016.2 |
| 20260510161943 | 81 | 211 | 0.9 | 1.7 | 0.00 | 0.00 | 0.00 | 41 | 1016.1 |
| 20260510161438 | 80 | 232 | 0.9 | 0.9 | 0.00 | 0.00 | 0.00 | 41 | 1016.2 |
| 20260510160936 | 83 | 114 | 0.0 | 0.9 | 0.00 | 0.00 | 0.00 | 39 | 1016.2 |
| 20260510160433 | 82 | 81 | 0.0 | 0.0 | 0.00 | 0.00 | 0.00 | 42 | 1016.2 |
| 20260510155931 | 81 | 61 | 0.0 | 0.0 | 0.00 | 0.00 | 0.00 | 40 | 1016.3 |
| 20260510155428 | 82 | 189 | 0.9 | 0.9 | 0.00 | 0.00 | 0.00 | 44 | 1016.4 |
| 20260510154925 | 80 | 126 | 0.0 | 0.0 | 0.00 | 0.00 | 0.00 | 48 | 1016.7 |
| 20260510154421 | 80 | 95 | 0.9 | 1.7 | 0.00 | 0.00 | 0.00 | 45 | 1016.6 |
| 20260510153914 | 81 | 357 | 0.9 | 1.7 | 0.00 | 0.00 | 0.00 | 45 | 1016.5 |
| 20260510153411 | 80 | 137 | 0.0 | 0.9 | 0.00 | 0.00 | 0.00 | 46 | 1016.6 |
| 20260510152907 | 80 | 86 | 0.0 | 0.0 | 0.00 | 0.00 | 0.00 | 48 | 1016.8 |
| 20260510152405 | 79 | 128 | 0.0 | 0.0 | 0.00 | 0.00 | 0.00 | 45 | 1016.8 |
| 20260510151901 | 83 | 127 | 0.0 | 0.0 | 0.00 | 0.00 | 0.00 | 46 | 1016.7 |
| 20260510151359 | 82 | 135 | 0.0 | 0.0 | 0.00 | 0.00 | 0.00 | 46 | 1016.6 |
| 20260510150855 | 83 | 106 | 0.0 | 0.0 | 0.00 | 0.00 | 0.00 | 49 | 1016.6 |
| 20260510150350 | 82 | 137 | 0.0 | 0.9 | 0.00 | 0.00 | 0.00 | 46 | 1016.4 |
| 20260510145847 | 81 | 85 | 0.0 | 0.0 | 0.00 | 0.00 | 0.00 | 48 | 1016.4 |
| 20260510145343 | 81 | 138 | 0.0 | 0.9 | 0.00 | 0.00 | 0.00 | 48 | 1016.4 |
| 20260510144840 | 80 | 78 | 0.0 | 0.0 | 0.00 | 0.00 | 0.00 | 53 | 1016.5 |
| 20260510144337 | 78 | 104 | 1.7 | 1.7 | 0.00 | 0.00 | 0.00 | 53 | 1016.4 |
| 20260510143836 | 78 | 47 | 0.9 | 0.9 | 0.00 | 0.00 | 0.00 | 52 | 1016.5 |
| 20260510143333 | 77 | 46 | 0.9 | 1.7 | 0.00 | 0.00 | 0.00 | 52 | 1016.4 |
| 20260510142830 | 78 | 86 | 0.0 | 0.0 | 0.00 | 0.00 | 0.00 | 56 | 1016.6 |
| 20260510142327 | 79 | 97 | 0.0 | 0.0 | 0.00 | 0.00 | 0.00 | 56 | 1016.3 |
| 20260510141824 | 78 | 94 | 0.0 | 0.0 | 0.00 | 0.00 | 0.00 | 56 | 1016.5 |
| 20260510141321 | 77 | 355 | 0.0 | 0.0 | 0.00 | 0.00 | 0.00 | 53 | 1016.5 |
| 20260510140819 | 81 | 91 | 0.0 | 0.0 | 0.00 | 0.00 | 0.00 | 50 | 1016.6 |
| 20260510140315 | 80 | 88 | 0.0 | 0.0 | 0.00 | 0.00 | 0.00 | 55 | 1016.6 |
| 20260510135813 | 78 | 81 | 0.0 | 0.0 | 0.00 | 0.00 | 0.00 | 56 | 1016.6 |
| 20260510135309 | 75 | 103 | 0.0 | 0.0 | 0.00 | 0.00 | 0.00 | 59 | 1016.7 |
| 20260510134807 | 78 | 62 | 0.0 | 0.9 | 0.00 | 0.00 | 0.00 | 59 | 1016.7 |
| 20260510134304 | 78 | 95 | 0.0 | 0.0 | 0.00 | 0.00 | 0.00 | 56 | 1016.5 |
| 20260510133800 | 76 | 10 | 0.0 | 0.9 | 0.00 | 0.00 | 0.00 | 59 | 1016.3 |
| 20260510133256 | 75 | 86 | 0.0 | 0.0 | 0.00 | 0.00 | 0.00 | 62 | 1016.6 |
| 20260510132751 | 78 | 112 | 0.0 | 0.0 | 0.00 | 0.00 | 0.00 | 61 | 1016.3 |
| 20260510132250 | 77 | 141 | 0.0 | 0.0 | 0.00 | 0.00 | 0.00 | 64 | 1016.5 |
| 20260510131746 | 77 | 101 | 0.0 | 0.0 | 0.00 | 0.00 | 0.00 | 64 | 1016.4 |
| 20260510131244 | 77 | 111 | 0.0 | 0.9 | 0.00 | 0.00 | 0.00 | 64 | 1016.6 |
| 20260510130740 | 77 | 96 | 0.0 | 0.0 | 0.00 | 0.00 | 0.00 | 65 | 1016.3 |
| 20260510130237 | 75 | 107 | 0.0 | 0.0 | 0.00 | 0.00 | 0.00 | 65 | 1016.3 |
| 20260510125734 | 75 | 105 | 0.0 | 0.0 | 0.00 | 0.00 | 0.00 | 69 | 1016.0 |
| 20260510125230 | 77 | 105 | 0.0 | 0.0 | 0.00 | 0.00 | 0.00 | 65 | 1016.0 |
| 20260510124726 | 75 | 132 | 0.0 | 0.0 | 0.00 | 0.00 | 0.00 | 69 | 1015.8 |
| 20260510124224 | 76 | 70 | 0.0 | 0.0 | 0.00 | 0.00 | 0.00 | 69 | 1016.0 |
| 20260510123719 | 74 | 70 | 0.0 | 0.0 | 0.00 | 0.00 | 0.00 | 71 | 1015.9 |
| 20260510123216 | 74 | 70 | 0.0 | 0.0 | 0.00 | 0.00 | 0.00 | 72 | 1016.0 |
| 20260510122712 | 73 | 70 | 0.0 | 0.0 | 0.00 | 0.00 | 0.00 | 74 | 1015.6 |
| 20260510122208 | 71 | 70 | 0.0 | 0.0 | 0.00 | 0.00 | 0.00 | 78 | 1015.8 |
| 20260510121704 | 70 | 70 | 0.0 | 0.0 | 0.00 | 0.00 | 0.00 | 79 | 1015.9 |
| 20260510121202 | 68 | 70 | 0.0 | 0.0 | 0.00 | 0.00 | 0.00 | 82 | 1015.6 |
| 20260510120659 | 67 | 70 | 0.0 | 0.0 | 0.00 | 0.00 | 0.00 | 86 | 1015.6 |
| 20260510120156 | 66 | 70 | 0.0 | 0.0 | 0.00 | 0.00 | 0.00 | 87 | 1015.8 |
| 20260510115651 | 65 | 70 | 0.0 | 0.0 | 0.00 | 0.00 | 0.00 | 89 | 1015.5 |
| 20260510115150 | 64 | 70 | 0.0 | 0.0 | 0.00 | 0.00 | 0.00 | 91 | 1015.5 |
| 20260510114645 | 63 | 70 | 0.0 | 0.0 | 0.00 | 0.00 | 0.00 | 93 | 1015.3 |
| 20260510114142 | 63 | 70 | 0.0 | 0.0 | 0.00 | 0.00 | 0.00 | 95 | 1015.3 |
| 20260510113637 | 62 | 71 | 0.0 | 0.0 | 0.00 | 0.00 | 0.00 | 96 | 1015.4 |
| 20260510113134 | 62 | 71 | 0.0 | 0.0 | 0.00 | 0.00 | 0.00 | 96 | 1015.1 |
| 20260510112631 | 61 | 73 | 0.0 | 0.0 | 0.00 | 0.00 | 0.00 | 97 | 1015.2 |
| 20260510112128 | 61 | 73 | 0.0 | 0.0 | 0.00 | 0.00 | 0.00 | 97 | 1014.9 |
| 20260510111624 | 60 | 73 | 0.0 | 0.0 | 0.00 | 0.00 | 0.00 | 97 | 1014.8 |
| 20260510111120 | 60 | 73 | 0.0 | 0.0 | 0.00 | 0.00 | 0.00 | 97 | 1014.8 |
| 20260510110616 | 60 | 73 | 0.0 | 0.0 | 0.00 | 0.00 | 0.00 | 97 | 1014.6 |
| 20260510110113 | 60 | 73 | 0.0 | 0.0 | 0.00 | 0.00 | 0.00 | 97 | 1014.7 |
| 20260510105608 | 60 | 72 | 0.0 | 0.0 | 0.00 | 0.00 | 0.00 | 97 | 1014.8 |
| 20260510105103 | 60 | 72 | 0.0 | 0.0 | 0.00 | 0.00 | 0.00 | 97 | 1014.5 |
| 20260510104600 | 60 | 72 | 0.0 | 0.0 | 0.00 | 0.00 | 0.00 | 97 | 1014.5 |
| 20260510104057 | 60 | 72 | 0.0 | 0.0 | 0.00 | 0.00 | 0.00 | 97 | 1014.5 |
| 20260510103554 | 60 | 72 | 0.0 | 0.0 | 0.00 | 0.00 | 0.00 | 97 | 1014.5 |
| 20260510103050 | 59 | 72 | 0.0 | 0.0 | 0.00 | 0.00 | 0.00 | 97 | 1014.4 |
| 20260510102545 | 59 | 72 | 0.0 | 0.0 | 0.00 | 0.00 | 0.00 | 97 | 1014.3 |
| 20260510102041 | 59 | 72 | 0.0 | 0.0 | 0.00 | 0.00 | 0.00 | 97 | 1014.2 |
| 20260510101539 | 59 | 72 | 0.0 | 0.0 | 0.00 | 0.00 | 0.00 | 97 | 1014.1 |
| 20260510101038 | 59 | 72 | 0.0 | 0.0 | 0.00 | 0.00 | 0.00 | 97 | 1013.9 |
| 20260510100533 | 60 | 72 | 0.0 | 0.0 | 0.00 | 0.00 | 0.00 | 97 | 1013.8 |
| 20260510100031 | 60 | 72 | 0.0 | 0.0 | 0.00 | 0.00 | 0.00 | 97 | 1014.0 |
| 20260510095527 | 59 | 72 | 0.0 | 0.0 | 0.00 | 0.00 | 0.00 | 97 | 1013.8 |
| 20260510095026 | 59 | 72 | 0.0 | 0.0 | 0.00 | 0.00 | 0.00 | 97 | 1013.8 |
| 20260510094520 | 59 | 72 | 0.0 | 0.0 | 0.00 | 0.00 | 0.00 | 96 | 1013.7 |
| 20260510094017 | 59 | 72 | 0.0 | 0.0 | 0.00 | 0.00 | 0.00 | 96 | 1013.7 |
| 20260510093512 | 59 | 72 | 0.0 | 0.0 | 0.00 | 0.00 | 0.00 | 96 | 1013.4 |
| 20260510093009 | 60 | 72 | 0.0 | 0.0 | 0.00 | 0.00 | 0.00 | 96 | 1013.4 |
| 20260510092506 | 60 | 72 | 0.0 | 0.0 | 0.00 | 0.00 | 0.00 | 96 | 1013.3 |
| 20260510092006 | 60 | 72 | 0.0 | 0.0 | 0.00 | 0.00 | 0.00 | 96 | 1013.4 |
| 20260510091503 | 60 | 73 | 0.0 | 0.0 | 0.00 | 0.00 | 0.00 | 96 | 1013.4 |
| 20260510090959 | 60 | 73 | 0.0 | 0.0 | 0.00 | 0.00 | 0.00 | 96 | 1013.3 |
| 20260510090456 | 60 | 73 | 0.0 | 0.0 | 0.00 | 0.00 | 0.00 | 96 | 1013.3 |
| 20260510085951 | 60 | 73 | 0.0 | 0.0 | 0.00 | 0.00 | 0.00 | 96 | 1013.1 |
| 20260510085447 | 60 | 73 | 0.0 | 0.0 | 0.00 | 0.00 | 0.00 | 96 | 1013.1 |
| 20260510084942 | 60 | 73 | 0.0 | 0.0 | 0.00 | 0.00 | 0.00 | 96 | 1013.1 |
| 20260510084440 | 60 | 73 | 0.0 | 0.0 | 0.00 | 0.00 | 0.00 | 96 | 1013.2 |
| 20260510083937 | 60 | 73 | 0.0 | 0.0 | 0.00 | 0.00 | 0.00 | 96 | 1013.3 |
| 20260510083433 | 60 | 73 | 0.0 | 0.0 | 0.00 | 0.00 | 0.00 | 96 | 1013.2 |
| 20260510082928 | 60 | 73 | 0.0 | 0.0 | 0.00 | 0.00 | 0.00 | 96 | 1013.0 |
| 20260510082426 | 60 | 73 | 0.0 | 0.0 | 0.00 | 0.00 | 0.00 | 96 | 1013.0 |
| 20260510081925 | 60 | 73 | 0.0 | 0.0 | 0.00 | 0.00 | 0.00 | 96 | 1013.1 |
| 20260510081421 | 60 | 73 | 0.0 | 0.0 | 0.00 | 0.00 | 0.00 | 96 | 1012.9 |
| 20260510080918 | 60 | 73 | 0.0 | 0.0 | 0.00 | 0.00 | 0.00 | 96 | 1013.0 |
| 20260510080417 | 60 | 73 | 0.0 | 0.0 | 0.00 | 0.00 | 0.00 | 96 | 1012.9 |
| 20260510075914 | 60 | 73 | 0.0 | 0.0 | 0.00 | 0.00 | 0.00 | 96 | 1013.1 |
| 20260510075412 | 60 | 73 | 0.0 | 0.0 | 0.00 | 0.00 | 0.00 | 95 | 1012.8 |
| 20260510074908 | 60 | 73 | 0.0 | 0.0 | 0.00 | 0.00 | 0.00 | 95 | 1012.9 |
| 20260510074405 | 60 | 73 | 0.0 | 0.0 | 0.00 | 0.00 | 0.00 | 95 | 1012.8 |
| 20260510073902 | 60 | 73 | 0.0 | 0.0 | 0.00 | 0.00 | 0.00 | 95 | 1012.9 |
| 20260510073357 | 60 | 73 | 0.0 | 0.0 | 0.00 | 0.00 | 0.00 | 95 | 1012.9 |
| 20260510072853 | 60 | 73 | 0.0 | 0.0 | 0.00 | 0.00 | 0.00 | 95 | 1012.8 |
| 20260510072351 | 60 | 73 | 0.0 | 0.0 | 0.00 | 0.00 | 0.00 | 95 | 1012.7 |
| 20260510071846 | 60 | 73 | 0.0 | 0.0 | 0.00 | 0.00 | 0.00 | 95 | 1012.6 |
| 20260510071343 | 60 | 73 | 0.0 | 0.0 | 0.00 | 0.00 | 0.00 | 95 | 1012.7 |
| 20260510070842 | 60 | 73 | 0.0 | 0.0 | 0.00 | 0.00 | 0.00 | 95 | 1012.7 |
| 20260510070338 | 60 | 73 | 0.0 | 0.0 | 0.00 | 0.00 | 0.00 | 95 | 1012.7 |
| 20260510065833 | 60 | 73 | 0.0 | 0.0 | 0.00 | 0.00 | 0.00 | 95 | 1012.8 |
| 20260510065330 | 61 | 73 | 0.0 | 0.0 | 0.00 | 0.00 | 0.00 | 95 | 1012.9 |
| 20260510064827 | 61 | 73 | 0.0 | 0.0 | 0.00 | 0.00 | 0.00 | 95 | 1012.9 |
| 20260510064325 | 61 | 73 | 0.0 | 0.0 | 0.00 | 0.00 | 0.00 | 95 | 1012.9 |
| 20260510063820 | 61 | 73 | 0.0 | 0.0 | 0.00 | 0.00 | 0.00 | 95 | 1012.9 |
| 20260510063317 | 61 | 73 | 0.0 | 0.0 | 0.00 | 0.00 | 0.00 | 95 | 1012.9 |
| 20260510062814 | 61 | 74 | 0.0 | 0.0 | 0.00 | 0.00 | 0.00 | 95 | 1012.8 |
| 20260510062309 | 61 | 73 | 0.0 | 0.0 | 0.00 | 0.00 | 0.00 | 94 | 1012.7 |
| 20260510061805 | 61 | 74 | 0.0 | 0.0 | 0.00 | 0.00 | 0.00 | 94 | 1012.7 |
| 20260510061302 | 61 | 74 | 0.0 | 0.0 | 0.00 | 0.00 | 0.00 | 94 | 1012.6 |
| 20260510060758 | 61 | 74 | 0.0 | 0.0 | 0.00 | 0.00 | 0.00 | 94 | 1012.7 |
| 20260510060255 | 61 | 19 | 0.0 | 0.0 | 0.00 | 0.00 | 0.00 | 94 | 1012.9 |
| 20260510055752 | 61 | 19 | 0.0 | 0.0 | 0.00 | 0.00 | 0.00 | 95 | 1012.9 |
| 20260510055250 | 61 | 19 | 0.0 | 0.0 | 0.00 | 0.00 | 0.00 | 95 | 1013.0 |
| 20260510054750 | 61 | 19 | 0.0 | 0.0 | 0.00 | 0.00 | 0.00 | 95 | 1012.9 |
| 20260510054246 | 61 | 19 | 0.0 | 0.0 | 0.00 | 0.00 | 0.00 | 95 | 1013.0 |
| 20260510053745 | 61 | 19 | 0.0 | 0.0 | 0.00 | 0.00 | 0.00 | 95 | 1013.0 |
| 20260510053242 | 61 | 19 | 0.0 | 0.0 | 0.00 | 0.00 | 0.00 | 95 | 1013.1 |
| 20260510052737 | 61 | 19 | 0.0 | 0.0 | 0.00 | 0.00 | 0.00 | 94 | 1013.1 |
| 20260510052234 | 61 | 19 | 0.0 | 0.0 | 0.00 | 0.00 | 0.00 | 95 | 1013.2 |
| 20260510051730 | 61 | 20 | 0.0 | 0.0 | 0.00 | 0.00 | 0.00 | 95 | 1013.3 |
| 20260510051227 | 61 | 19 | 0.0 | 0.0 | 0.00 | 0.00 | 0.00 | 95 | 1013.4 |
| 20260510050723 | 61 | 19 | 0.0 | 0.0 | 0.00 | 0.00 | 0.00 | 95 | 1013.3 |
| 20260510050221 | 61 | 19 | 0.0 | 0.0 | 0.00 | 0.00 | 0.00 | 95 | 1013.2 |
| 20260510045717 | 61 | 20 | 0.0 | 0.0 | 0.00 | 0.00 | 0.00 | 95 | 1013.2 |
| 20260510045214 | 61 | 20 | 0.0 | 0.0 | 0.00 | 0.00 | 0.00 | 95 | 1013.3 |
| 20260510044710 | 61 | 19 | 0.0 | 0.0 | 0.00 | 0.00 | 0.00 | 95 | 1013.3 |
| 20260510044208 | 61 | 19 | 0.0 | 0.0 | 0.00 | 0.00 | 0.00 | 95 | 1013.5 |
| 20260510043703 | 61 | 19 | 0.0 | 0.0 | 0.00 | 0.00 | 0.00 | 95 | 1013.3 |
| 20260510043200 | 61 | 19 | 0.0 | 0.0 | 0.00 | 0.00 | 0.00 | 95 | 1013.3 |
| 20260510042657 | 61 | 20 | 0.0 | 0.0 | 0.00 | 0.00 | 0.00 | 95 | 1013.3 |
| 20260510042153 | 61 | 20 | 0.0 | 0.0 | 0.00 | 0.00 | 0.00 | 95 | 1013.4 |
| 20260510041651 | 61 | 20 | 0.0 | 0.0 | 0.00 | 0.00 | 0.00 | 95 | 1013.3 |
| 20260510041148 | 61 | 20 | 0.0 | 0.0 | 0.00 | 0.00 | 0.00 | 95 | 1013.3 |
| 20260510040645 | 61 | 19 | 0.0 | 0.0 | 0.00 | 0.00 | 0.00 | 95 | 1013.4 |
| 20260510040142 | 61 | 19 | 0.0 | 0.0 | 0.00 | 0.00 | 0.00 | 95 | 1013.2 |
| 20260510035637 | 61 | 19 | 0.0 | 0.0 | 0.00 | 0.00 | 0.00 | 94 | 1013.2 |
| 20260510035132 | 61 | 19 | 0.0 | 0.0 | 0.00 | 0.00 | 0.00 | 94 | 1013.2 |
| 20260510034630 | 61 | 19 | 0.0 | 0.0 | 0.00 | 0.00 | 0.00 | 94 | 1013.2 |
| 20260510034126 | 61 | 19 | 0.0 | 0.0 | 0.00 | 0.00 | 0.00 | 94 | 1013.0 |
| 20260510033623 | 61 | 20 | 0.0 | 0.0 | 0.00 | 0.00 | 0.00 | 94 | 1013.2 |
| 20260510033121 | 62 | 19 | 0.0 | 0.0 | 0.00 | 0.00 | 0.00 | 94 | 1013.2 |
| 20260510032617 | 62 | 19 | 0.0 | 0.0 | 0.00 | 0.00 | 0.00 | 94 | 1013.1 |
| 20260510032112 | 62 | 19 | 0.0 | 0.0 | 0.00 | 0.00 | 0.00 | 94 | 1013.1 |
| 20260510031607 | 62 | 19 | 0.0 | 0.0 | 0.00 | 0.00 | 0.00 | 94 | 1012.9 |
| 20260510031104 | 62 | 19 | 0.0 | 0.0 | 0.00 | 0.00 | 0.00 | 93 | 1013.0 |
| 20260510030559 | 62 | 19 | 0.0 | 0.0 | 0.00 | 0.00 | 0.00 | 93 | 1012.9 |
| 20260510030057 | 62 | 19 | 0.0 | 0.0 | 0.00 | 0.00 | 0.00 | 93 | 1012.8 |
| 20260510025554 | 62 | 19 | 0.0 | 0.0 | 0.00 | 0.00 | 0.00 | 93 | 1013.0 |
| 20260510025052 | 62 | 19 | 0.0 | 0.0 | 0.00 | 0.00 | 0.00 | 93 | 1012.9 |
| 20260510024548 | 62 | 19 | 0.0 | 0.0 | 0.00 | 0.00 | 0.00 | 93 | 1013.0 |
| 20260510024044 | 62 | 19 | 0.0 | 0.0 | 0.00 | 0.00 | 0.00 | 93 | 1012.9 |
| 20260510023540 | 62 | 19 | 0.0 | 0.0 | 0.00 | 0.00 | 0.00 | 93 | 1013.1 |
| 20260510023038 | 62 | 19 | 0.0 | 0.0 | 0.00 | 0.00 | 0.00 | 92 | 1012.8 |
| 20260510022537 | 62 | 19 | 0.0 | 0.0 | 0.00 | 0.00 | 0.00 | 92 | 1012.8 |
| 20260510022032 | 62 | 19 | 0.0 | 0.0 | 0.00 | 0.00 | 0.00 | 92 | 1012.8 |
| 20260510021529 | 63 | 19 | 0.0 | 0.0 | 0.00 | 0.00 | 0.00 | 92 | 1012.8 |
| 20260510021027 | 63 | 19 | 0.0 | 0.0 | 0.00 | 0.00 | 0.00 | 92 | 1012.6 |
| 20260510020526 | 63 | 19 | 0.0 | 0.0 | 0.00 | 0.00 | 0.00 | 92 | 1012.6 |
| 20260510020022 | 63 | 19 | 0.0 | 0.0 | 0.00 | 0.00 | 0.00 | 92 | 1012.6 |
| 20260510015518 | 63 | 19 | 0.0 | 0.0 | 0.00 | 0.00 | 0.00 | 92 | 1013.0 |
| 20260510015014 | 63 | 19 | 0.0 | 0.0 | 0.00 | 0.00 | 0.00 | 92 | 1012.8 |
| 20260510014511 | 63 | 19 | 0.0 | 0.0 | 0.00 | 0.00 | 0.00 | 91 | 1012.8 |
| 20260510014008 | 63 | 19 | 0.0 | 0.0 | 0.00 | 0.00 | 0.00 | 91 | 1012.5 |
| 20260510013502 | 63 | 19 | 0.0 | 0.0 | 0.00 | 0.00 | 0.00 | 91 | 1012.2 |
| 20260510012958 | 64 | 19 | 0.0 | 0.0 | 0.00 | 0.00 | 0.00 | 90 | 1012.4 |
| 20260510012453 | 64 | 19 | 0.0 | 0.0 | 0.00 | 0.00 | 0.00 | 90 | 1012.2 |
| 20260510011948 | 64 | 19 | 0.0 | 0.0 | 0.00 | 0.00 | 0.00 | 90 | 1012.0 |
| 20260510011443 | 64 | 19 | 0.0 | 0.0 | 0.00 | 0.00 | 0.00 | 90 | 1012.1 |
| 20260510010939 | 64 | 19 | 0.0 | 0.0 | 0.00 | 0.00 | 0.00 | 89 | 1011.9 |
| 20260510010437 | 64 | 19 | 0.0 | 0.0 | 0.00 | 0.00 | 0.00 | 89 | 1011.8 |
| 20260510005934 | 64 | 19 | 0.0 | 0.0 | 0.00 | 0.00 | 0.00 | 88 | 1012.1 |
| 20260510005429 | 64 | 19 | 0.0 | 0.0 | 0.00 | 0.00 | 0.00 | 88 | 1012.0 |
| 20260510004927 | 65 | 19 | 0.0 | 0.0 | 0.00 | 0.00 | 0.00 | 87 | 1011.9 |
| 20260510004424 | 65 | 19 | 0.0 | 0.0 | 0.00 | 0.00 | 0.00 | 86 | 1012.0 |
| 20260510003922 | 65 | 18 | 0.0 | 0.0 | 0.00 | 0.00 | 0.00 | 86 | 1011.8 |
| 20260510003419 | 66 | 18 | 0.0 | 0.0 | 0.00 | 0.00 | 0.00 | 86 | 1011.6 |
| 20260510002918 | 66 | 18 | 0.0 | 0.0 | 0.00 | 0.00 | 0.00 | 85 | 1011.6 |
| 20260510002415 | 66 | 19 | 0.0 | 0.0 | 0.00 | 0.00 | 0.00 | 85 | 1011.5 |
| 20260510001912 | 66 | 19 | 0.0 | 0.0 | 0.00 | 0.00 | 0.00 | 84 | 1011.7 |
| 20260510001410 | 67 | 15 | 0.0 | 0.0 | 0.00 | 0.00 | 0.00 | 83 | 1011.8 |
| 20260510000906 | 67 | 15 | 0.0 | 0.0 | 0.00 | 0.00 | 0.00 | 82 | 1011.7 |
| 20260510000403 | 68 | 15 | 0.0 | 0.0 | 0.00 | 0.00 | 0.00 | 81 | 1011.6 |
| 20260509235859 | 68 | 15 | 0.0 | 0.0 | 0.00 | 0.00 | 0.00 | 80 | 1011.6 |
| 20260509235356 | 69 | 15 | 0.0 | 0.0 | 0.00 | 0.00 | 0.00 | 79 | 1011.7 |
| 20260509234852 | 69 | 15 | 0.0 | 0.0 | 0.00 | 0.00 | 0.00 | 77 | 1011.7 |
| 20260509234349 | 69 | 15 | 0.0 | 0.0 | 0.00 | 0.00 | 0.00 | 77 | 1011.5 |
| 20260509233848 | 69 | 15 | 0.0 | 0.0 | 0.00 | 0.00 | 0.00 | 76 | 1011.5 |
| 20260509233345 | 70 | 15 | 0.0 | 0.0 | 0.00 | 0.00 | 0.00 | 76 | 1011.2 |
| 20260509232840 | 70 | 14 | 0.0 | 0.0 | 0.00 | 0.00 | 0.00 | 75 | 1011.2 |
| 20260509232339 | 71 | 14 | 0.0 | 0.0 | 0.00 | 0.00 | 0.00 | 76 | 1011.2 |
| 20260509231834 | 71 | 15 | 0.0 | 0.0 | 0.00 | 0.00 | 0.00 | 73 | 1011.4 |
| 20260509231331 | 71 | 115 | 0.0 | 0.0 | 0.00 | 0.00 | 0.00 | 73 | 1011.2 |
| 20260509230829 | 71 | 36 | 0.0 | 0.0 | 0.00 | 0.00 | 0.00 | 73 | 1011.2 |
| 20260509230326 | 71 | 35 | 0.0 | 0.0 | 0.00 | 0.00 | 0.00 | 73 | 1011.1 |
| 20260509225820 | 71 | 66 | 0.0 | 0.0 | 0.00 | 0.00 | 0.00 | 73 | 1011.1 |
| 20260509225318 | 71 | 39 | 0.0 | 0.9 | 0.00 | 0.00 | 0.00 | 72 | 1011.1 |
| 20260509224814 | 72 | 27 | 0.0 | 0.0 | 0.00 | 0.00 | 0.00 | 72 | 1010.7 |
| 20260509224310 | 72 | 27 | 0.0 | 0.0 | 0.00 | 0.00 | 0.00 | 71 | 1010.8 |
| 20260509223807 | 72 | 50 | 0.0 | 0.0 | 0.00 | 0.00 | 0.00 | 70 | 1010.9 |
| 20260509223304 | 72 | 349 | 0.0 | 0.0 | 0.00 | 0.00 | 0.00 | 71 | 1010.9 |
| 20260509222801 | 73 | 45 | 0.0 | 0.0 | 0.00 | 0.00 | 0.00 | 70 | 1011.0 |
| 20260509222256 | 73 | 147 | 0.0 | 0.0 | 0.00 | 0.00 | 0.00 | 70 | 1011.0 |
| 20260509221752 | 72 | 34 | 0.0 | 0.0 | 0.00 | 0.00 | 0.00 | 71 | 1010.8 |
| 20260509221249 | 72 | 72 | 0.0 | 0.0 | 0.00 | 0.00 | 0.00 | 70 | 1011.1 |
| 20260509220745 | 73 | 307 | 0.0 | 0.0 | 0.00 | 0.00 | 0.00 | 70 | 1011.4 |
| 20260509220241 | 73 | 79 | 0.0 | 0.0 | 0.00 | 0.00 | 0.00 | 70 | 1011.0 |
| 20260509215736 | 73 | 50 | 0.0 | 0.0 | 0.00 | 0.00 | 0.00 | 69 | 1011.1 |
| 20260509215234 | 73 | 58 | 0.0 | 0.0 | 0.00 | 0.00 | 0.00 | 70 | 1011.1 |
| 20260509214731 | 73 | 113 | 0.0 | 0.0 | 0.00 | 0.00 | 0.00 | 70 | 1011.2 |
| 20260509214227 | 73 | 186 | 0.0 | 0.0 | 0.00 | 0.00 | 0.00 | 69 | 1011.2 |
| 20260509213725 | 73 | 35 | 0.0 | 0.0 | 0.00 | 0.00 | 0.00 | 69 | 1011.0 |
| 20260509213220 | 73 | 49 | 0.0 | 0.0 | 0.00 | 0.00 | 0.00 | 69 | 1011.0 |
| 20260509212718 | 73 | 53 | 0.0 | 0.0 | 0.00 | 0.00 | 0.00 | 69 | 1011.1 |
| 20260509212214 | 73 | 153 | 0.0 | 0.0 | 0.00 | 0.00 | 0.00 | 69 | 1010.9 |
| 20260509211710 | 73 | 77 | 0.0 | 0.9 | 0.00 | 0.00 | 0.00 | 70 | 1010.9 |
| 20260509211207 | 73 | 60 | 0.0 | 0.0 | 0.00 | 0.00 | 0.00 | 69 | 1010.8 |
| 20260509210704 | 73 | 41 | 0.0 | 0.9 | 0.00 | 0.00 | 0.00 | 70 | 1010.7 |
| 20260509210201 | 73 | 4 | 0.0 | 0.0 | 0.00 | 0.00 | 0.00 | 69 | 1010.8 |
| 20260509205701 | 74 | 34 | 0.9 | 0.9 | 0.00 | 0.00 | 0.00 | 69 | 1010.7 |
| 20260509205201 | 73 | 94 | 0.0 | 0.0 | 0.00 | 0.00 | 0.00 | 69 | 1010.7 |
| 20260509204657 | 73 | 54 | 0.9 | 0.9 | 0.00 | 0.00 | 0.00 | 68 | 1010.7 |
| 20260509204153 | 73 | 109 | 0.0 | 0.0 | 0.00 | 0.00 | 0.00 | 69 | 1010.9 |
| 20260509203649 | 72 | 80 | 0.0 | 0.0 | 0.00 | 0.00 | 0.00 | 69 | 1011.0 |
| 20260509203148 | 72 | 97 | 0.0 | 0.0 | 0.00 | 0.00 | 0.00 | 69 | 1011.0 |
| 20260509202643 | 72 | 57 | 0.0 | 0.0 | 0.00 | 0.00 | 0.00 | 69 | 1010.9 |
| 20260509202138 | 72 | 53 | 0.0 | 0.0 | 0.00 | 0.00 | 0.00 | 69 | 1011.0 |
| 20260509201634 | 72 | 68 | 0.0 | 0.0 | 0.00 | 0.00 | 0.00 | 70 | 1011.1 |
| 20260509201131 | 72 | 44 | 0.0 | 0.9 | 0.00 | 0.00 | 0.00 | 71 | 1011.0 |
| 20260509200627 | 72 | 63 | 0.0 | 0.0 | 0.00 | 0.00 | 0.00 | 69 | 1010.9 |
| 20260509200123 | 72 | 298 | 0.0 | 0.0 | 0.00 | 0.00 | 0.00 | 68 | 1011.0 |
| 20260509195619 | 72 | 79 | 0.0 | 0.0 | 0.00 | 0.00 | 0.00 | 69 | 1011.2 |
| 20260509195113 | 71 | 358 | 0.9 | 0.9 | 0.00 | 0.00 | 0.00 | 70 | 1011.3 |
| 20260509194613 | 71 | 39 | 0.9 | 0.9 | 0.00 | 0.00 | 0.00 | 70 | 1011.3 |
| 20260509194111 | 71 | 31 | 0.0 | 0.0 | 0.00 | 0.00 | 0.00 | 71 | 1011.5 |
| 20260509193606 | 71 | 77 | 0.0 | 0.0 | 0.00 | 0.00 | 0.00 | 68 | 1011.5 |
| 20260509193102 | 71 | 89 | 0.0 | 0.0 | 0.00 | 0.00 | 0.00 | 68 | 1011.5 |
| 20260509192559 | 71 | 203 | 0.9 | 0.9 | 0.00 | 0.00 | 0.00 | 67 | 1011.5 |
| 20260509192054 | 72 | 246 | 0.0 | 0.0 | 0.00 | 0.00 | 0.00 | 68 | 1011.6 |
| 20260509191555 | 72 | 51 | 0.0 | 0.0 | 0.00 | 0.00 | 0.00 | 68 | 1011.7 |
| 20260509191051 | 71 | 31 | 0.0 | 0.9 | 0.00 | 0.00 | 0.00 | 68 | 1011.7 |
| 20260509190548 | 71 | 297 | 0.0 | 0.9 | 0.00 | 0.00 | 0.00 | 68 | 1011.7 |
| 20260509190046 | 71 | 55 | 0.9 | 0.9 | 0.00 | 0.00 | 0.00 | 67 | 1011.7 |
| 20260509185543 | 73 | 274 | 0.9 | 0.9 | 0.00 | 0.00 | 0.00 | 65 | 1011.7 |
| 20260509185039 | 73 | 278 | 0.0 | 0.9 | 0.00 | 0.00 | 0.00 | 63 | 1011.4 |